START_TIME,STEP,MOV.,P11,t_acc.,P23,t_acc.,P27,t_acc.,A4,t_acc.
1979-07-17 18:00:23.080 ,0,1,2.,4.8,0.,4.8,0.,4.8,0.,4.8
1979-07-17 18:00:27.880 ,0,1,4.,4.8,0.,4.8,0.,4.8,0.,4.8
1979-07-17 18:00:32.680 ,0,1,5.,4.8,0.,4.8,0.,4.8,0.,4.8
1979-07-17 18:00:37.480 ,0,1,4.,4.8,0.,4.8,0.,4.8,0.,4.8
1979-07-17 18:00:42.280 ,0,1,3.,4.8,0.,4.8,0.,4.8,1.,4.8
1979-07-17 18:00:47.080 ,4,1,2.,4.8,0.,4.8,0.,4.8,0.,4.8
1979-07-17 18:00:51.880 ,4,1,1.,4.8,0.,4.8,0.,4.8,0.,4.8
1979-07-17 18:00:56.680 ,4,1,3.,4.8,0.,4.8,0.,4.8,1.,4.8
1979-07-17 18:01:01.480 ,4,1,2.,4.8,0.,4.8,0.,4.8,0.,4.8
1979-07-17 18:01:06.280 ,4,1,2.,4.8,0.,4.8,0.,4.8,0.,4.8
1979-07-17 18:01:11.080 ,7,1,0.,4.8,0.,4.8,0.,4.8,0.,4.8
1979-07-17 18:01:15.880 ,7,1,0.,4.8,0.,4.8,0.,4.8,0.,4.8
1979-07-17 18:01:20.680 ,7,1,4.,4.8,0.,4.8,0.,4.8,0.,4.8
1979-07-17 18:01:25.480 ,7,1,2.,4.8,0.,4.8,0.,4.8,0.,4.8
1979-07-17 18:01:30.280 ,7,1,2.,4.8,0.,4.8,0.,4.8,0.,4.8
1979-07-17 18:01:35.080 ,3,1,0.,4.8,0.,4.8,0.,4.8,0.,4.8
1979-07-17 18:01:39.880 ,3,1,1.,4.8,0.,4.8,0.,4.8,0.,4.8
1979-07-17 18:01:44.680 ,3,1,3.,4.8,0.,4.8,0.,4.8,0.,4.8
1979-07-17 18:01:49.480 ,3,1,3.,4.8,0.,4.8,0.,4.8,0.,4.8
1979-07-17 18:01:54.280 ,3,1,1.,4.8,0.,4.8,0.,4.8,0.,4.8
1979-07-17 18:01:59.080 ,0,1,4.,4.8,0.,4.8,0.,4.8,0.,4.8
1979-07-17 18:02:03.880 ,0,1,3.,4.8,0.,4.8,0.,4.8,0.,4.8
1979-07-17 18:02:08.680 ,0,1,5.,4.8,0.,4.8,0.,4.8,0.,4.8
1979-07-17 18:02:13.480 ,0,1,5.,4.8,0.,4.8,0.,4.8,0.,4.8
1979-07-17 18:02:18.280 ,0,1,2.,4.8,0.,4.8,0.,4.8,0.,4.8
1979-07-17 18:02:23.080 ,4,1,2.,4.8,0.,4.8,0.,4.8,0.,4.8
1979-07-17 18:02:27.880 ,4,1,2.,4.8,0.,4.8,0.,4.8,0.,4.8
1979-07-17 18:02:32.680 ,4,1,2.,4.8,0.,4.8,0.,4.8,0.,4.8
1979-07-17 18:02:37.480 ,4,1,0.,4.8,0.,4.8,0.,4.8,0.,4.8
1979-07-17 18:02:42.280 ,4,1,5.,4.8,0.,4.8,0.,4.8,0.,4.8
1979-07-17 18:02:47.080 ,7,1,6.,4.8,0.,4.8,0.,4.8,0.,4.8
1979-07-17 18:02:51.880 ,7,1,5.,4.8,0.,4.8,0.,4.8,0.,4.8
1979-07-17 18:02:56.680 ,7,1,7.,4.8,0.,4.8,0.,4.8,0.,4.8
1979-07-17 18:03:01.480 ,7,1,1.,4.8,0.,4.8,0.,4.8,0.,4.8
1979-07-17 18:03:06.280 ,7,1,1.,4.8,0.,4.8,0.,4.8,0.,4.8
1979-07-17 18:03:11.080 ,3,1,3.,4.8,0.,4.8,0.,4.8,0.,4.8
1979-07-17 18:03:15.880 ,3,1,4.,4.8,0.,4.8,0.,4.8,0.,4.8
1979-07-17 18:03:20.680 ,3,1,4.,4.8,0.,4.8,0.,4.8,0.,4.8
1979-07-17 18:03:25.480 ,3,1,3.,4.8,0.,4.8,0.,4.8,0.,4.8
1979-07-17 18:03:30.280 ,3,1,2.,4.8,0.,4.8,0.,4.8,0.,4.8
1979-07-17 18:03:35.080 ,0,1,4.,4.8,0.,4.8,0.,4.8,0.,4.8
1979-07-17 18:03:39.880 ,0,1,4.,4.8,0.,4.8,0.,4.8,0.,4.8
1979-07-17 18:03:44.680 ,0,1,4.,4.8,0.,4.8,0.,4.8,0.,4.8
1979-07-17 18:03:49.480 ,0,1,1.,4.8,0.,4.8,0.,4.8,1.,4.8
1979-07-17 18:03:54.280 ,0,1,3.,4.8,0.,4.8,0.,4.8,0.,4.8
1979-07-17 18:03:59.080 ,4,1,3.,4.8,0.,4.8,0.,4.8,0.,4.8
1979-07-17 18:04:03.880 ,4,1,4.,4.8,0.,4.8,0.,4.8,0.,4.8
1979-07-17 18:04:08.680 ,4,1,1.,4.8,0.,4.8,0.,4.8,0.,4.8
1979-07-17 18:04:13.480 ,4,1,2.,4.8,0.,4.8,0.,4.8,0.,4.8
1979-07-17 18:04:18.280 ,4,1,3.,4.8,0.,4.8,0.,4.8,0.,4.8
1979-07-17 18:04:23.080 ,7,1,4.,4.8,0.,4.8,0.,4.8,0.,4.8
1979-07-17 18:04:27.880 ,7,1,2.,4.8,0.,4.8,0.,4.8,0.,4.8
1979-07-17 18:04:32.680 ,7,1,4.,4.8,0.,4.8,0.,4.8,0.,4.8
1979-07-17 18:04:37.480 ,7,1,2.,4.8,0.,4.8,0.,4.8,0.,4.8
1979-07-17 18:04:42.280 ,7,1,1.,4.8,0.,4.8,0.,4.8,0.,4.8
1979-07-17 18:04:47.080 ,0,0,0.,4.8,0.,4.8,0.,4.8,0.,4.8
1979-07-17 18:04:51.880 ,0,0,0.,4.8,0.,4.8,0.,4.8,0.,4.8
1979-07-17 18:04:56.680 ,0,0,2.,4.8,0.,4.8,0.,4.8,0.,4.8
1979-07-17 18:05:01.480 ,0,0,3.,4.8,0.,4.8,0.,4.8,0.,4.8
1979-07-17 18:05:06.280 ,0,0,5.,4.8,0.,4.8,0.,4.8,1.,4.8
1979-07-17 18:05:11.080 ,0,0,1.,4.8,0.,4.8,0.,4.8,1.,4.8
1979-07-17 18:05:15.880 ,0,0,4.,4.8,0.,4.8,0.,4.8,0.,4.8
1979-07-17 18:05:20.680 ,0,0,3.,4.8,0.,4.8,0.,4.8,0.,4.8
1979-07-17 18:05:25.480 ,0,0,1.,4.8,0.,4.8,0.,4.8,0.,4.8
1979-07-17 18:05:30.280 ,0,0,3.,4.8,0.,4.8,0.,4.8,0.,4.8
1979-07-17 18:05:35.080 ,0,0,3.,4.8,0.,4.8,0.,4.8,0.,4.8
1979-07-17 18:05:39.880 ,0,0,2.,4.8,0.,4.8,0.,4.8,0.,4.8
1979-07-17 18:05:44.680 ,0,0,2.,4.8,0.,4.8,0.,4.8,0.,4.8
1979-07-17 18:05:49.480 ,0,0,3.,4.8,0.,4.8,0.,4.8,0.,4.8
1979-07-17 18:05:54.280 ,0,0,3.,4.8,0.,4.8,0.,4.8,0.,4.8
1979-07-17 18:05:59.080 ,0,0,3.,4.8,0.,4.8,0.,4.8,0.,4.8
1979-07-17 18:06:03.880 ,0,0,5.,4.8,0.,4.8,0.,4.8,0.,4.8
1979-07-17 18:06:08.680 ,0,0,3.,4.8,0.,4.8,0.,4.8,0.,4.8
1979-07-17 18:06:13.480 ,0,0,2.,4.8,0.,4.8,0.,4.8,0.,4.8
1979-07-17 18:06:18.280 ,0,0,0.,4.8,0.,4.8,0.,4.8,0.,4.8
1979-07-17 18:06:23.080 ,5,0,2.,4.8,0.,4.8,0.,4.8,0.,4.8
1979-07-17 18:06:27.880 ,5,0,3.,4.8,0.,4.8,0.,4.8,0.,4.8
1979-07-17 18:06:32.680 ,5,0,2.,4.8,0.,4.8,0.,4.8,0.,4.8
1979-07-17 18:06:37.480 ,5,0,2.,4.8,0.,4.8,0.,4.8,0.,4.8
1979-07-17 18:06:42.280 ,5,0,2.,4.8,0.,4.8,0.,4.8,0.,4.8
1979-07-17 18:06:47.080 ,5,0,5.,4.8,0.,4.8,0.,4.8,0.,4.8
1979-07-17 18:06:51.880 ,5,0,3.,4.8,0.,4.8,0.,4.8,0.,4.8
1979-07-17 18:06:56.680 ,5,0,2.,4.8,0.,4.8,0.,4.8,0.,4.8
1979-07-17 18:07:01.480 ,5,0,1.,4.8,0.,4.8,0.,4.8,0.,4.8
1979-07-17 18:07:06.280 ,5,0,3.,4.8,0.,4.8,0.,4.8,0.,4.8
1979-07-17 18:07:11.080 ,4,0,1.,4.8,0.,4.8,0.,4.8,0.,4.8
1979-07-17 18:07:15.880 ,4,0,3.,4.8,0.,4.8,0.,4.8,0.,4.8
1979-07-17 18:07:20.680 ,4,0,2.,4.8,0.,4.8,0.,4.8,2.,4.8
1979-07-17 18:07:25.480 ,4,0,2.,4.8,0.,4.8,0.,4.8,0.,4.8
1979-07-17 18:07:30.280 ,4,0,3.,4.8,0.,4.8,0.,4.8,0.,4.8
1979-07-17 18:07:35.080 ,4,0,2.,4.8,0.,4.8,0.,4.8,0.,4.8
1979-07-17 18:07:39.880 ,4,0,4.,4.8,0.,4.8,0.,4.8,1.,4.8
1979-07-17 18:07:44.680 ,4,0,4.,4.8,0.,4.8,0.,4.8,0.,4.8
1979-07-17 18:07:49.480 ,4,0,6.,4.8,0.,4.8,0.,4.8,0.,4.8
1979-07-17 18:07:54.280 ,4,0,3.,4.8,0.,4.8,0.,4.8,0.,4.8
1979-07-17 18:07:59.080 ,3,0,2.,4.8,0.,4.8,0.,4.8,0.,4.8
1979-07-17 18:08:03.880 ,3,0,3.,4.8,0.,4.8,0.,4.8,0.,4.8
1979-07-17 18:08:08.680 ,3,0,3.,4.8,0.,4.8,0.,4.8,0.,4.8
1979-07-17 18:08:13.480 ,3,0,2.,4.8,0.,4.8,0.,4.8,0.,4.8
1979-07-17 18:08:18.280 ,3,0,4.,4.8,0.,4.8,0.,4.8,0.,4.8
1979-07-17 18:08:23.080 ,3,0,2.,4.8,0.,4.8,0.,4.8,0.,4.8
1979-07-17 18:08:27.880 ,3,0,4.,4.8,0.,4.8,0.,4.8,0.,4.8
1979-07-17 18:08:32.680 ,3,0,5.,4.8,0.,4.8,0.,4.8,0.,4.8
1979-07-17 18:08:37.480 ,3,0,1.,4.8,0.,4.8,0.,4.8,0.,4.8
1979-07-17 18:08:42.280 ,3,0,2.,4.8,0.,4.8,0.,4.8,0.,4.8
1979-07-17 18:08:47.080 ,2,0,5.,4.8,0.,4.8,0.,4.8,0.,4.8
1979-07-17 18:08:51.880 ,2,0,5.,4.8,0.,4.8,0.,4.8,0.,4.8
1979-07-17 18:08:56.680 ,2,0,4.,4.8,0.,4.8,0.,4.8,0.,4.8
1979-07-17 18:09:01.480 ,2,0,3.,4.8,0.,4.8,0.,4.8,1.,4.8
1979-07-17 18:09:06.280 ,2,0,3.,4.8,0.,4.8,0.,4.8,0.,4.8
1979-07-17 18:09:11.080 ,2,0,0.,4.8,0.,4.8,0.,4.8,0.,4.8
1979-07-17 18:09:15.880 ,2,0,2.,4.8,0.,4.8,0.,4.8,0.,4.8
1979-07-17 18:09:20.680 ,2,0,3.,4.8,0.,4.8,0.,4.8,0.,4.8
1979-07-17 18:09:25.480 ,2,0,2.,4.8,0.,4.8,0.,4.8,0.,4.8
1979-07-17 18:09:30.280 ,2,0,6.,4.8,0.,4.8,0.,4.8,0.,4.8
1979-07-17 18:09:35.080 ,1,0,0.,4.8,0.,4.8,0.,4.8,0.,4.8
1979-07-17 18:09:39.880 ,1,0,2.,4.8,0.,4.8,0.,4.8,1.,4.8
1979-07-17 18:09:44.680 ,1,0,1.,4.8,0.,4.8,0.,4.8,0.,4.8
1979-07-17 18:09:49.480 ,1,0,2.,4.8,0.,4.8,0.,4.8,0.,4.8
1979-07-17 18:09:54.280 ,1,0,3.,4.8,0.,4.8,0.,4.8,0.,4.8
1979-07-17 18:09:59.080 ,1,0,4.,4.8,0.,4.8,0.,4.8,0.,4.8
1979-07-17 18:10:03.880 ,1,0,5.,4.8,0.,4.8,0.,4.8,0.,4.8
1979-07-17 18:10:08.680 ,1,0,3.,4.8,0.,4.8,0.,4.8,0.,4.8
1979-07-17 18:10:13.480 ,1,0,1.,4.8,0.,4.8,0.,4.8,0.,4.8
1979-07-17 18:10:18.280 ,1,0,5.,4.8,0.,4.8,0.,4.8,0.,4.8
1979-07-17 18:10:23.080 ,0,0,2.,4.8,0.,4.8,0.,4.8,0.,4.8
1979-07-17 18:10:27.880 ,0,0,5.,4.8,0.,4.8,0.,4.8,1.,4.8
1979-07-17 18:10:32.680 ,0,0,4.,4.8,0.,4.8,0.,4.8,0.,4.8
1979-07-17 18:10:37.480 ,0,0,2.,4.8,0.,4.8,0.,4.8,0.,4.8
1979-07-17 18:10:42.280 ,0,0,6.,4.8,0.,4.8,0.,4.8,0.,4.8
1979-07-17 18:10:47.080 ,0,0,3.,4.8,0.,4.8,0.,4.8,0.,4.8
1979-07-17 18:10:51.880 ,0,0,3.,4.8,0.,4.8,0.,4.8,0.,4.8
1979-07-17 18:10:56.680 ,0,0,3.,4.8,0.,4.8,0.,4.8,0.,4.8
1979-07-17 18:11:01.480 ,0,0,4.,4.8,0.,4.8,0.,4.8,0.,4.8
1979-07-17 18:11:06.280 ,0,0,1.,4.8,0.,4.8,0.,4.8,0.,4.8
1979-07-17 18:11:11.080 ,0,0,5.,4.8,0.,4.8,0.,4.8,0.,4.8
1979-07-17 18:11:15.880 ,0,0,3.,4.8,0.,4.8,0.,4.8,0.,4.8
1979-07-17 18:11:20.680 ,0,0,3.,4.8,0.,4.8,0.,4.8,0.,4.8
1979-07-17 18:11:25.480 ,0,0,3.,4.8,0.,4.8,0.,4.8,0.,4.8
1979-07-17 18:11:30.280 ,0,0,2.,4.8,0.,4.8,0.,4.8,0.,4.8
1979-07-17 18:11:35.080 ,0,0,2.,4.8,0.,4.8,0.,4.8,0.,4.8
1979-07-17 18:11:39.880 ,0,0,7.,4.8,0.,4.8,0.,4.8,0.,4.8
1979-07-17 18:11:44.680 ,0,0,2.,4.8,0.,4.8,0.,4.8,0.,4.8
1979-07-17 18:11:49.480 ,0,0,4.,4.8,0.,4.8,0.,4.8,0.,4.8
1979-07-17 18:11:54.280 ,0,0,4.,4.8,0.,4.8,0.,4.8,0.,4.8
1979-07-17 18:11:59.080 ,1,0,3.,4.8,0.,4.8,0.,4.8,0.,4.8
1979-07-17 18:12:03.880 ,1,0,3.,4.8,0.,4.8,0.,4.8,0.,4.8
1979-07-17 18:12:08.680 ,1,0,5.,4.8,0.,4.8,0.,4.8,0.,4.8
1979-07-17 18:12:13.480 ,1,0,4.,4.8,0.,4.8,0.,4.8,0.,4.8
1979-07-17 18:12:18.280 ,1,0,0.,4.8,0.,4.8,0.,4.8,0.,4.8
1979-07-17 18:12:23.080 ,1,0,1.,4.8,0.,4.8,0.,4.8,0.,4.8
1979-07-17 18:12:27.880 ,1,0,3.,4.8,0.,4.8,0.,4.8,0.,4.8
1979-07-17 18:12:32.680 ,1,0,1.,4.8,0.,4.8,0.,4.8,1.,4.8
1979-07-17 18:12:37.480 ,1,0,1.,4.8,0.,4.8,0.,4.8,0.,4.8
1979-07-17 18:12:42.280 ,1,0,4.,4.8,0.,4.8,0.,4.8,0.,4.8
1979-07-17 18:12:47.080 ,2,0,3.,4.8,0.,4.8,0.,4.8,0.,4.8
1979-07-17 18:12:51.880 ,2,0,5.,4.8,0.,4.8,0.,4.8,0.,4.8
1979-07-17 18:12:56.680 ,2,0,5.,4.8,0.,4.8,0.,4.8,0.,4.8
1979-07-17 18:13:01.480 ,2,0,4.,4.8,0.,4.8,0.,4.8,0.,4.8
1979-07-17 18:13:06.280 ,2,0,1.,4.8,0.,4.8,0.,4.8,0.,4.8
1979-07-17 18:13:11.080 ,2,0,2.,4.8,0.,4.8,0.,4.8,0.,4.8
1979-07-17 18:13:15.880 ,2,0,6.,4.8,0.,4.8,0.,4.8,0.,4.8
1979-07-17 18:13:20.680 ,2,0,2.,4.8,0.,4.8,0.,4.8,0.,4.8
1979-07-17 18:13:25.480 ,2,0,5.,4.8,0.,4.8,0.,4.8,0.,4.8
1979-07-17 18:13:30.280 ,2,0,5.,4.8,0.,4.8,0.,4.8,0.,4.8
1979-07-17 18:13:35.080 ,3,0,6.,4.8,0.,4.8,0.,4.8,0.,4.8
1979-07-17 18:13:39.880 ,3,0,2.,4.8,0.,4.8,0.,4.8,1.,4.8
1979-07-17 18:13:44.680 ,3,0,3.,4.8,0.,4.8,0.,4.8,0.,4.8
1979-07-17 18:13:49.480 ,3,0,3.,4.8,0.,4.8,0.,4.8,1.,4.8
1979-07-17 18:13:54.280 ,3,0,3.,4.8,0.,4.8,0.,4.8,0.,4.8
1979-07-17 18:13:59.080 ,3,0,4.,4.8,0.,4.8,0.,4.8,1.,4.8
1979-07-17 18:14:03.880 ,3,0,3.,4.8,0.,4.8,0.,4.8,0.,4.8
1979-07-17 18:14:08.680 ,3,0,2.,4.8,0.,4.8,0.,4.8,0.,4.8
1979-07-17 18:14:13.480 ,3,0,1.,4.8,0.,4.8,0.,4.8,0.,4.8
1979-07-17 18:14:18.280 ,3,0,5.,4.8,0.,4.8,0.,4.8,0.,4.8
1979-07-17 18:14:23.080 ,4,0,2.,4.8,0.,4.8,0.,4.8,0.,4.8
1979-07-17 18:14:27.880 ,4,0,0.,4.8,0.,4.8,0.,4.8,0.,4.8
1979-07-17 18:14:32.680 ,4,0,0.,4.8,0.,4.8,0.,4.8,0.,4.8
1979-07-17 18:14:37.480 ,4,0,2.,4.8,0.,4.8,0.,4.8,0.,4.8
1979-07-17 18:14:42.280 ,4,0,1.,4.8,0.,4.8,0.,4.8,0.,4.8
1979-07-17 18:14:47.080 ,4,0,3.,4.8,0.,4.8,0.,4.8,0.,4.8
1979-07-17 18:14:51.880 ,4,0,1.,4.8,0.,4.8,0.,4.8,0.,4.8
1979-07-17 18:14:56.680 ,4,0,1.,4.8,0.,4.8,0.,4.8,0.,4.8
1979-07-17 18:15:01.480 ,4,0,0.,4.8,0.,4.8,0.,4.8,0.,4.8
1979-07-17 18:15:06.280 ,4,0,1.,4.8,0.,4.8,0.,4.8,0.,4.8
1979-07-17 18:15:11.080 ,5,0,3.,4.8,0.,4.8,0.,4.8,0.,4.8
1979-07-17 18:15:15.880 ,5,0,5.,4.8,0.,4.8,0.,4.8,0.,4.8
1979-07-17 18:15:20.680 ,5,0,2.,4.8,0.,4.8,0.,4.8,1.,4.8
1979-07-17 18:15:25.480 ,5,0,5.,4.8,0.,4.8,0.,4.8,0.,4.8
1979-07-17 18:15:30.280 ,5,0,3.,4.8,0.,4.8,0.,4.8,0.,4.8
1979-07-17 18:15:35.080 ,5,0,2.,4.8,0.,4.8,0.,4.8,0.,4.8
1979-07-17 18:15:39.880 ,5,0,1.,4.8,0.,4.8,0.,4.8,0.,4.8
1979-07-17 18:15:44.680 ,5,0,0.,4.8,0.,4.8,0.,4.8,0.,4.8
1979-07-17 18:15:49.480 ,5,0,0.,4.8,0.,4.8,0.,4.8,0.,4.8
1979-07-17 18:15:54.280 ,5,0,3.,4.8,0.,4.8,0.,4.8,0.,4.8
1979-07-17 18:15:59.080 ,6,0,4.,4.8,0.,4.8,0.,4.8,0.,4.8
1979-07-17 18:16:03.880 ,6,0,3.,4.8,0.,4.8,0.,4.8,0.,4.8
1979-07-17 18:16:08.680 ,6,0,2.,4.8,0.,4.8,0.,4.8,0.,4.8
1979-07-17 18:16:13.480 ,6,0,5.,4.8,0.,4.8,0.,4.8,0.,4.8
1979-07-17 18:16:18.280 ,6,0,6.,4.8,0.,4.8,0.,4.8,0.,4.8
1979-07-17 18:16:23.080 ,6,0,3.,4.8,0.,4.8,0.,4.8,0.,4.8
1979-07-17 18:16:27.880 ,6,0,4.,4.8,0.,4.8,0.,4.8,0.,4.8
1979-07-17 18:16:32.680 ,6,0,4.,4.8,0.,4.8,0.,4.8,0.,4.8
1979-07-17 18:16:37.480 ,6,0,2.,4.8,0.,4.8,0.,4.8,0.,4.8
1979-07-17 18:16:42.280 ,6,0,2.,4.8,0.,4.8,0.,4.8,0.,4.8
1979-07-17 18:16:47.080 ,7,0,3.,4.8,0.,4.8,0.,4.8,0.,4.8
1979-07-17 18:16:51.880 ,7,0,5.,4.8,0.,4.8,0.,4.8,0.,4.8
1979-07-17 18:16:56.680 ,7,0,2.,4.8,0.,4.8,0.,4.8,0.,4.8
1979-07-17 18:17:01.480 ,7,0,0.,4.8,0.,4.8,0.,4.8,0.,4.8
1979-07-17 18:17:06.280 ,7,0,3.,4.8,0.,4.8,0.,4.8,0.,4.8
1979-07-17 18:17:11.080 ,7,0,2.,4.8,0.,4.8,0.,4.8,0.,4.8
1979-07-17 18:17:15.880 ,7,0,1.,4.8,0.,4.8,0.,4.8,0.,4.8
1979-07-17 18:17:20.680 ,7,0,4.,4.8,0.,4.8,0.,4.8,0.,4.8
1979-07-17 18:17:25.480 ,7,0,0.,4.8,0.,4.8,0.,4.8,0.,4.8
1979-07-17 18:17:30.280 ,7,0,3.,4.8,0.,4.8,0.,4.8,0.,4.8
1979-07-17 18:17:35.080 ,7,0,2.,4.8,0.,4.8,0.,4.8,0.,4.8
1979-07-17 18:17:39.880 ,7,0,4.,4.8,0.,4.8,0.,4.8,0.,4.8
1979-07-17 18:17:44.680 ,7,0,3.,4.8,0.,4.8,0.,4.8,0.,4.8
1979-07-17 18:17:49.480 ,7,0,2.,4.8,0.,4.8,0.,4.8,0.,4.8
1979-07-17 18:17:54.280 ,7,0,0.,4.8,0.,4.8,0.,4.8,0.,4.8
1979-07-17 18:17:59.080 ,7,0,3.,4.8,0.,4.8,0.,4.8,0.,4.8
1979-07-17 18:18:03.880 ,7,0,2.,4.8,0.,4.8,0.,4.8,0.,4.8
1979-07-17 18:18:08.680 ,7,0,1.,4.8,0.,4.8,0.,4.8,0.,4.8
1979-07-17 18:18:13.480 ,7,0,2.,4.8,0.,4.8,0.,4.8,0.,4.8
1979-07-17 18:18:18.280 ,7,0,3.,4.8,0.,4.8,0.,4.8,0.,4.8
1979-07-17 18:18:23.080 ,6,0,0.,4.8,0.,4.8,0.,4.8,0.,4.8
1979-07-17 18:18:27.880 ,6,0,3.,4.8,0.,4.8,0.,4.8,0.,4.8
1979-07-17 18:18:32.680 ,6,0,2.,4.8,0.,4.8,0.,4.8,0.,4.8
1979-07-17 18:18:37.480 ,6,0,5.,4.8,0.,4.8,0.,4.8,0.,4.8
1979-07-17 18:18:42.280 ,6,0,2.,4.8,0.,4.8,0.,4.8,0.,4.8
1979-07-17 18:18:47.080 ,6,0,0.,4.8,0.,4.8,0.,4.8,0.,4.8
1979-07-17 18:18:51.880 ,6,0,3.,4.8,0.,4.8,0.,4.8,0.,4.8
1979-07-17 18:18:56.680 ,6,0,2.,4.8,0.,4.8,0.,4.8,0.,4.8
1979-07-17 18:19:01.480 ,6,0,2.,4.8,0.,4.8,0.,4.8,1.,4.8
1979-07-17 18:19:06.280 ,6,0,7.,4.8,0.,4.8,0.,4.8,0.,4.8
1979-07-17 18:19:11.080 ,5,0,6.,4.8,0.,4.8,0.,4.8,0.,4.8
1979-07-17 18:19:15.880 ,5,0,2.,4.8,0.,4.8,0.,4.8,0.,4.8
1979-07-17 18:19:20.680 ,5,0,4.,4.8,0.,4.8,0.,4.8,0.,4.8
1979-07-17 18:19:25.480 ,5,0,1.,4.8,0.,4.8,0.,4.8,0.,4.8
1979-07-17 18:19:30.280 ,5,0,1.,4.8,0.,4.8,0.,4.8,0.,4.8
1979-07-17 18:19:35.080 ,5,0,3.,4.8,0.,4.8,0.,4.8,0.,4.8
1979-07-17 18:19:39.880 ,5,0,2.,4.8,0.,4.8,0.,4.8,0.,4.8
1979-07-17 18:19:44.680 ,5,0,5.,4.8,0.,4.8,0.,4.8,0.,4.8
1979-07-17 18:19:49.480 ,5,0,5.,4.8,0.,4.8,0.,4.8,0.,4.8
1979-07-17 18:19:54.280 ,5,0,3.,4.8,0.,4.8,0.,4.8,0.,4.8
1979-07-17 18:19:59.080 ,4,0,6.,4.8,0.,4.8,0.,4.8,1.,4.8
1979-07-17 18:20:03.880 ,4,0,4.,4.8,0.,4.8,0.,4.8,0.,4.8
1979-07-17 18:20:08.680 ,4,0,2.,4.8,0.,4.8,0.,4.8,0.,4.8
1979-07-17 18:20:13.480 ,4,0,2.,4.8,0.,4.8,0.,4.8,0.,4.8
1979-07-17 18:20:18.280 ,4,0,4.,4.8,0.,4.8,0.,4.8,1.,4.8
1979-07-17 18:20:23.080 ,4,0,3.,4.8,0.,4.8,0.,4.8,0.,4.8
1979-07-17 18:20:27.880 ,4,0,5.,4.8,0.,4.8,0.,4.8,0.,4.8
1979-07-17 18:20:32.680 ,4,0,6.,4.8,0.,4.8,0.,4.8,0.,4.8
1979-07-17 18:20:37.480 ,4,0,5.,4.8,0.,4.8,0.,4.8,0.,4.8
1979-07-17 18:20:42.280 ,4,0,1.,4.8,0.,4.8,0.,4.8,0.,4.8
1979-07-17 18:20:47.080 ,3,0,3.,4.8,0.,4.8,0.,4.8,0.,4.8
1979-07-17 18:20:51.880 ,3,0,5.,4.8,0.,4.8,0.,4.8,0.,4.8
1979-07-17 18:20:56.680 ,3,0,7.,4.8,0.,4.8,0.,4.8,0.,4.8
1979-07-17 18:21:01.480 ,3,0,2.,4.8,0.,4.8,0.,4.8,0.,4.8
1979-07-17 18:21:06.280 ,3,0,3.,4.8,0.,4.8,0.,4.8,0.,4.8
1979-07-17 18:21:11.080 ,3,0,5.,4.8,0.,4.8,0.,4.8,0.,4.8
1979-07-17 18:21:15.880 ,3,0,6.,4.8,0.,4.8,0.,4.8,1.,4.8
1979-07-17 18:21:20.680 ,3,0,3.,4.8,0.,4.8,0.,4.8,0.,4.8
1979-07-17 18:21:25.480 ,3,0,2.,4.8,0.,4.8,0.,4.8,0.,4.8
1979-07-17 18:21:30.280 ,3,0,2.,4.8,0.,4.8,0.,4.8,0.,4.8
1979-07-17 18:21:35.080 ,2,0,6.,4.8,0.,4.8,0.,4.8,0.,4.8
1979-07-17 18:21:39.880 ,2,0,2.,4.8,0.,4.8,0.,4.8,0.,4.8
1979-07-17 18:21:44.680 ,2,0,1.,4.8,0.,4.8,0.,4.8,0.,4.8
1979-07-17 18:21:49.480 ,2,0,2.,4.8,0.,4.8,0.,4.8,0.,4.8
1979-07-17 18:21:54.280 ,2,0,9.,4.8,0.,4.8,0.,4.8,0.,4.8
1979-07-17 18:21:59.080 ,2,0,4.,4.8,0.,4.8,0.,4.8,0.,4.8
1979-07-17 18:22:03.880 ,2,0,1.,4.8,0.,4.8,0.,4.8,0.,4.8
1979-07-17 18:22:08.680 ,2,0,4.,4.8,0.,4.8,0.,4.8,0.,4.8
1979-07-17 18:22:13.480 ,2,0,3.,4.8,0.,4.8,0.,4.8,0.,4.8
1979-07-17 18:22:18.280 ,2,0,5.,4.8,0.,4.8,0.,4.8,0.,4.8
1979-07-17 18:22:23.080 ,1,0,6.,4.8,0.,4.8,0.,4.8,0.,4.8
1979-07-17 18:22:27.880 ,1,0,1.,4.8,0.,4.8,0.,4.8,0.,4.8
1979-07-17 18:22:32.680 ,1,0,3.,4.8,0.,4.8,0.,4.8,1.,4.8
1979-07-17 18:22:37.480 ,1,0,1.,4.8,0.,4.8,0.,4.8,0.,4.8
1979-07-17 18:22:42.280 ,1,0,4.,4.8,0.,4.8,0.,4.8,0.,4.8
1979-07-17 18:22:47.080 ,1,0,4.,4.8,0.,4.8,0.,4.8,0.,4.8
1979-07-17 18:22:51.880 ,1,0,2.,4.8,0.,4.8,0.,4.8,0.,4.8
1979-07-17 18:22:56.680 ,1,0,3.,4.8,0.,4.8,0.,4.8,0.,4.8
1979-07-17 18:23:01.480 ,1,0,2.,4.8,0.,4.8,0.,4.8,0.,4.8
1979-07-17 18:23:06.280 ,1,0,2.,4.8,0.,4.8,0.,4.8,1.,4.8
1979-07-17 18:23:11.080 ,0,0,5.,4.8,0.,4.8,0.,4.8,1.,4.8
1979-07-17 18:23:15.880 ,0,0,3.,4.8,0.,4.8,0.,4.8,0.,4.8
1979-07-17 18:23:20.680 ,0,0,3.,4.8,0.,4.8,0.,4.8,0.,4.8
1979-07-17 18:23:25.480 ,0,0,4.,4.8,0.,4.8,0.,4.8,0.,4.8
1979-07-17 18:23:30.280 ,0,0,1.,4.8,0.,4.8,0.,4.8,0.,4.8
1979-07-17 18:23:35.080 ,0,0,4.,4.8,0.,4.8,0.,4.8,1.,4.8
1979-07-17 18:23:39.880 ,0,0,6.,4.8,0.,4.8,0.,4.8,0.,4.8
1979-07-17 18:23:44.680 ,0,0,1.,4.8,0.,4.8,0.,4.8,0.,4.8
1979-07-17 18:23:49.480 ,0,0,1.,4.8,0.,4.8,0.,4.8,0.,4.8
1979-07-17 18:23:54.280 ,0,0,2.,4.8,0.,4.8,0.,4.8,0.,4.8
1979-07-17 18:23:59.080 ,0,0,2.,4.8,0.,4.8,0.,4.8,0.,4.8
1979-07-17 18:24:03.880 ,0,0,2.,4.8,0.,4.8,0.,4.8,1.,4.8
1979-07-17 18:24:08.680 ,0,0,2.,4.8,0.,4.8,0.,4.8,1.,4.8
1979-07-17 18:24:13.480 ,0,0,8.,4.8,0.,4.8,0.,4.8,0.,4.8
1979-07-17 18:24:18.280 ,0,0,5.,4.8,0.,4.8,0.,4.8,0.,4.8
1979-07-17 18:24:23.080 ,0,0,2.,4.8,0.,4.8,0.,4.8,0.,4.8
1979-07-17 18:24:27.880 ,0,0,2.,4.8,0.,4.8,0.,4.8,0.,4.8
1979-07-17 18:24:32.680 ,0,0,2.,4.8,0.,4.8,0.,4.8,0.,4.8
1979-07-17 18:24:37.480 ,0,0,6.,4.8,0.,4.8,0.,4.8,0.,4.8
1979-07-17 18:24:42.280 ,0,0,5.,4.8,0.,4.8,0.,4.8,0.,4.8
1979-07-17 18:24:47.080 ,1,0,4.,4.8,0.,4.8,0.,4.8,0.,4.8
1979-07-17 18:24:51.880 ,1,0,3.,4.8,0.,4.8,0.,4.8,0.,4.8
1979-07-17 18:24:56.680 ,1,0,1.,4.8,0.,4.8,0.,4.8,0.,4.8
1979-07-17 18:25:01.480 ,1,0,3.,4.8,0.,4.8,0.,4.8,0.,4.8
1979-07-17 18:25:06.280 ,1,0,4.,4.8,0.,4.8,0.,4.8,0.,4.8
1979-07-17 18:25:11.080 ,1,0,4.,4.8,0.,4.8,0.,4.8,0.,4.8
1979-07-17 18:25:15.880 ,1,0,2.,4.8,0.,4.8,0.,4.8,0.,4.8
1979-07-17 18:25:20.680 ,1,0,2.,4.8,0.,4.8,0.,4.8,0.,4.8
1979-07-17 18:25:25.480 ,1,0,2.,4.8,0.,4.8,0.,4.8,0.,4.8
1979-07-17 18:25:30.280 ,1,0,0.,4.8,0.,4.8,0.,4.8,0.,4.8
1979-07-17 18:25:35.080 ,2,0,3.,4.8,0.,4.8,0.,4.8,1.,4.8
1979-07-17 18:25:39.880 ,2,0,3.,4.8,0.,4.8,0.,4.8,0.,4.8
1979-07-17 18:25:44.680 ,2,0,5.,4.8,0.,4.8,0.,4.8,0.,4.8
1979-07-17 18:25:49.480 ,2,0,4.,4.8,0.,4.8,0.,4.8,0.,4.8
1979-07-17 18:25:54.280 ,2,0,5.,4.8,0.,4.8,0.,4.8,0.,4.8
1979-07-17 18:25:59.080 ,2,0,2.,4.8,0.,4.8,0.,4.8,0.,4.8
1979-07-17 18:26:03.880 ,2,0,3.,4.8,0.,4.8,0.,4.8,0.,4.8
1979-07-17 18:26:08.680 ,2,0,4.,4.8,0.,4.8,0.,4.8,0.,4.8
1979-07-17 18:26:13.480 ,2,0,1.,4.8,0.,4.8,0.,4.8,1.,4.8
1979-07-17 18:26:18.280 ,2,0,4.,4.8,0.,4.8,0.,4.8,0.,4.8
1979-07-17 18:26:23.080 ,3,0,5.,4.8,0.,4.8,0.,4.8,0.,4.8
1979-07-17 18:26:27.880 ,3,0,6.,4.8,0.,4.8,0.,4.8,0.,4.8
1979-07-17 18:26:32.680 ,3,0,1.,4.8,0.,4.8,0.,4.8,0.,4.8
1979-07-17 18:26:37.480 ,3,0,5.,4.8,0.,4.8,0.,4.8,0.,4.8
1979-07-17 18:26:42.280 ,3,0,2.,4.8,0.,4.8,0.,4.8,0.,4.8
1979-07-17 18:26:47.080 ,3,0,5.,4.8,0.,4.8,0.,4.8,0.,4.8
1979-07-17 18:26:51.880 ,3,0,1.,4.8,0.,4.8,0.,4.8,0.,4.8
1979-07-17 18:26:56.680 ,3,0,1.,4.8,0.,4.8,0.,4.8,0.,4.8
1979-07-17 18:27:01.480 ,3,0,3.,4.8,0.,4.8,0.,4.8,0.,4.8
1979-07-17 18:27:06.280 ,3,0,7.,4.8,0.,4.8,0.,4.8,0.,4.8
1979-07-17 18:27:11.080 ,4,0,6.,4.8,0.,4.8,0.,4.8,0.,4.8
1979-07-17 18:27:15.880 ,4,0,7.,4.8,0.,4.8,0.,4.8,0.,4.8
1979-07-17 18:27:20.680 ,4,0,5.,4.8,0.,4.8,0.,4.8,0.,4.8
1979-07-17 18:27:25.480 ,4,0,4.,4.8,0.,4.8,0.,4.8,0.,4.8
1979-07-17 18:27:30.280 ,4,0,2.,4.8,0.,4.8,0.,4.8,0.,4.8
1979-07-17 18:27:35.080 ,4,0,4.,4.8,0.,4.8,0.,4.8,0.,4.8
1979-07-17 18:27:39.880 ,4,0,3.,4.8,0.,4.8,0.,4.8,0.,4.8
1979-07-17 18:27:44.680 ,4,0,5.,4.8,0.,4.8,0.,4.8,0.,4.8
1979-07-17 18:27:49.480 ,4,0,0.,4.8,0.,4.8,0.,4.8,0.,4.8
1979-07-17 18:27:54.280 ,4,0,4.,4.8,0.,4.8,0.,4.8,0.,4.8
1979-07-17 18:27:59.080 ,5,0,3.,4.8,0.,4.8,0.,4.8,0.,4.8
1979-07-17 18:28:03.880 ,5,0,3.,4.8,0.,4.8,0.,4.8,0.,4.8
1979-07-17 18:28:08.680 ,5,0,3.,4.8,0.,4.8,0.,4.8,0.,4.8
1979-07-17 18:28:13.480 ,5,0,6.,4.8,0.,4.8,0.,4.8,0.,4.8
1979-07-17 18:28:18.280 ,5,0,6.,4.8,0.,4.8,0.,4.8,1.,4.8
1979-07-17 18:28:23.080 ,5,0,4.,4.8,0.,4.8,0.,4.8,0.,4.8
1979-07-17 18:28:27.880 ,5,0,4.,4.8,0.,4.8,0.,4.8,0.,4.8
1979-07-17 18:28:32.680 ,5,0,5.,4.8,0.,4.8,0.,4.8,0.,4.8
1979-07-17 18:28:37.480 ,5,0,4.,4.8,0.,4.8,0.,4.8,0.,4.8
1979-07-17 18:28:42.280 ,5,0,5.,4.8,0.,4.8,0.,4.8,1.,4.8
1979-07-17 18:28:47.080 ,6,0,6.,4.8,0.,4.8,0.,4.8,0.,4.8
1979-07-17 18:28:51.880 ,6,0,5.,4.8,0.,4.8,0.,4.8,0.,4.8
1979-07-17 18:28:56.680 ,6,0,4.,4.8,0.,4.8,0.,4.8,0.,4.8
1979-07-17 18:29:01.480 ,6,0,5.,4.8,0.,4.8,0.,4.8,0.,4.8
1979-07-17 18:29:06.280 ,6,0,2.,4.8,0.,4.8,0.,4.8,0.,4.8
1979-07-17 18:29:11.080 ,6,0,3.,4.8,0.,4.8,0.,4.8,0.,4.8
1979-07-17 18:29:15.880 ,6,0,2.,4.8,0.,4.8,0.,4.8,0.,4.8
1979-07-17 18:29:20.680 ,6,0,2.,4.8,0.,4.8,0.,4.8,0.,4.8
1979-07-17 18:29:25.480 ,6,0,3.,4.8,0.,4.8,0.,4.8,0.,4.8
1979-07-17 18:29:30.280 ,6,0,0.,4.8,0.,4.8,0.,4.8,0.,4.8
1979-07-17 18:29:35.080 ,7,0,4.,4.8,0.,4.8,0.,4.8,0.,4.8
1979-07-17 18:29:39.880 ,7,0,1.,4.8,0.,4.8,0.,4.8,0.,4.8
1979-07-17 18:29:44.680 ,7,0,0.,4.8,0.,4.8,0.,4.8,0.,4.8
1979-07-17 18:29:49.480 ,7,0,3.,4.8,0.,4.8,0.,4.8,0.,4.8
1979-07-17 18:29:54.280 ,7,0,1.,4.8,0.,4.8,0.,4.8,0.,4.8
1979-07-17 18:29:59.080 ,7,0,2.,4.8,0.,4.8,0.,4.8,0.,4.8
1979-07-17 18:30:03.880 ,7,0,0.,4.8,0.,4.8,0.,4.8,0.,4.8
1979-07-17 18:30:08.680 ,7,0,1.,4.8,0.,4.8,0.,4.8,0.,4.8
1979-07-17 18:30:13.480 ,7,0,2.,4.8,0.,4.8,0.,4.8,0.,4.8
1979-07-17 18:30:18.280 ,7,0,1.,4.8,0.,4.8,0.,4.8,0.,4.8
1979-07-17 18:30:23.080 ,7,0,0.,4.8,0.,4.8,0.,4.8,0.,4.8
1979-07-17 18:30:27.880 ,7,0,1.,4.8,0.,4.8,0.,4.8,0.,4.8
1979-07-17 18:30:32.680 ,7,0,1.,4.8,0.,4.8,0.,4.8,0.,4.8
1979-07-17 18:30:37.480 ,7,0,1.,4.8,0.,4.8,0.,4.8,0.,4.8
1979-07-17 18:30:42.280 ,7,0,1.,4.8,0.,4.8,0.,4.8,0.,4.8
1979-07-17 18:30:47.080 ,7,0,2.,4.8,0.,4.8,0.,4.8,0.,4.8
1979-07-17 18:30:51.880 ,7,0,0.,4.8,0.,4.8,0.,4.8,0.,4.8
1979-07-17 18:30:56.680 ,7,0,6.,4.8,0.,4.8,0.,4.8,0.,4.8
1979-07-17 18:31:01.480 ,7,0,1.,4.8,0.,4.8,0.,4.8,0.,4.8
1979-07-17 18:31:06.280 ,7,0,0.,4.8,0.,4.8,0.,4.8,0.,4.8
1979-07-17 18:31:11.080 ,6,0,1.,4.8,0.,4.8,0.,4.8,0.,4.8
1979-07-17 18:31:15.880 ,6,0,3.,4.8,0.,4.8,0.,4.8,0.,4.8
1979-07-17 18:31:20.680 ,6,0,1.,4.8,0.,4.8,0.,4.8,0.,4.8
1979-07-17 18:31:25.480 ,6,0,1.,4.8,0.,4.8,0.,4.8,0.,4.8
1979-07-17 18:31:30.280 ,6,0,6.,4.8,0.,4.8,0.,4.8,0.,4.8
1979-07-17 18:31:35.080 ,6,0,3.,4.8,0.,4.8,0.,4.8,0.,4.8
1979-07-17 18:31:39.880 ,6,0,4.,4.8,0.,4.8,0.,4.8,0.,4.8
1979-07-17 18:31:44.680 ,6,0,3.,4.8,0.,4.8,0.,4.8,0.,4.8
1979-07-17 18:31:49.480 ,6,0,2.,4.8,0.,4.8,0.,4.8,0.,4.8
1979-07-17 18:31:54.280 ,6,0,3.,4.8,0.,4.8,0.,4.8,0.,4.8
1979-07-17 18:31:59.080 ,5,0,3.,4.8,0.,4.8,0.,4.8,1.,4.8
1979-07-17 18:32:03.880 ,5,0,4.,4.8,0.,4.8,0.,4.8,0.,4.8
1979-07-17 18:32:08.680 ,5,0,9.,4.8,0.,4.8,0.,4.8,0.,4.8
1979-07-17 18:32:13.480 ,5,0,1.,4.8,0.,4.8,0.,4.8,0.,4.8
1979-07-17 18:32:18.280 ,5,0,8.,4.8,0.,4.8,0.,4.8,0.,4.8
1979-07-17 18:32:23.080 ,5,0,7.,4.8,0.,4.8,0.,4.8,0.,4.8
1979-07-17 18:32:27.880 ,5,0,0.,4.8,0.,4.8,0.,4.8,0.,4.8
1979-07-17 18:32:32.680 ,5,0,2.,4.8,0.,4.8,0.,4.8,0.,4.8
1979-07-17 18:32:37.480 ,5,0,8.,4.8,0.,4.8,0.,4.8,0.,4.8
1979-07-17 18:32:42.280 ,5,0,7.,4.8,0.,4.8,0.,4.8,0.,4.8
1979-07-17 18:32:47.080 ,4,0,4.,4.8,0.,4.8,0.,4.8,0.,4.8
1979-07-17 18:32:51.880 ,4,0,1.,4.8,0.,4.8,0.,4.8,0.,4.8
1979-07-17 18:32:56.680 ,4,0,5.,4.8,0.,4.8,0.,4.8,0.,4.8
1979-07-17 18:33:01.480 ,4,0,1.,4.8,0.,4.8,0.,4.8,0.,4.8
1979-07-17 18:33:06.280 ,4,0,4.,4.8,0.,4.8,0.,4.8,0.,4.8
1979-07-17 18:33:11.080 ,4,0,2.,4.8,0.,4.8,0.,4.8,0.,4.8
1979-07-17 18:33:15.880 ,4,0,7.,4.8,0.,4.8,0.,4.8,0.,4.8